This demonstration page uses our WeatherBlox Daily Observations layout. Learn more.

Left ArrowRight Arrow

Hourly Observations for June 24, 2016

Temp ( °F °C ) Dew Point ( °F °C ) Humidity (%) Winds ( mph kmh ) Pressure ( in mb ) Visibility ( mi km ) Precip ( " mm )
12:51 am 00:51 Clear 79 26.1 41 5 26 26 SSE 3 6 29.80 1009 10 16 0.00 0.00
1:51 am 01:51 Clear 77 25 41 5 28 28 E 7 11 29.80 1009 10 16 0.00 0.00
2:51 am 02:51 Mostly Clear 78 25.6 41 5 27 27 NE 3 6 29.80 1009 10 16 0.00 0.00
3:51 am 03:51 Clear 77 25 42 5.6 29 29 SE 3 6 29.80 1009 10 16 0.00 0.00
4:51 am 04:51 Mostly Clear 77 25 42 5.6 29 29 E 7 11 29.83 1010 10 16 0.00 0.00
5:51 am 05:51 Mostly Sunny 79 26.1 43 6.1 28 28 S 5 7 29.84 1011 10 16 0.00 0.00
6:51 am 06:51 Sunny 83 28.3 44 6.7 25 25 SSE 8 13 29.85 1011 10 16 0.00 0.00
7:51 am 07:51 Sunny 87 30.6 45 7.2 23 23 SSE 7 11 29.86 1011 10 16 0.00 0.00
8:51 am 08:51 Sunny 91 32.8 46 7.8 21 21 Calm 29.85 1011 10 16 0.00 0.00
9:51 am 09:51 Sunny 93 33.9 49 9.4 22 22 VRB 6 9 29.84 1011 10 16 0.00 0.00
10:51 am 10:51 Sunny 97 36.1 48 8.9 19 19 WNW 10 17 29.83 1010 10 16 0.00 0.00
11:51 am 11:51 Sunny 100 37.8 48 8.9 17 17 WNW 13 20 29.80 1009 10 16 0.00 0.00
12:51 pm 12:51 Sunny 102 38.9 47 8.3 15 15 NW 15 24 29.77 1008 10 16 0.00 0.00
1:51 pm 13:51 Sunny 101 38.3 47 8.3 16 16 WNW 24 39 29.74 1007 10 16 0.00 0.00
2:51 pm 14:51 Sunny 100 37.8 45 7.2 15 15 WNW 21 33 29.73 1007 10 16 0.00 0.00
3:51 pm 15:51 Sunny 97 36.1 45 7.2 17 17 WNW 14 22 29.72 1007 10 16 0.00 0.00
4:51 pm 16:51 Mostly Sunny 96 35.6 44 6.7 17 17 S 16 26 29.73 1007 10 16 0.00 0.00
5:09 pm 17:09 Sunny 93 33.9 48 8.9 21 21 S 18 30 29.65 1004 10 16 0.00 0.00
5:51 pm 17:51 Sunny 93 33.9 45 7.2 19 19 S 9 15 29.71 1006 10 16 0.00 0.00
6:51 pm 18:51 Sunny 91 32.8 46 7.8 21 21 ENE 3 6 29.71 1006 10 16 0.00 0.00
7:51 pm 19:51 Clear 89 31.7 46 7.8 23 23 ESE 5 7 29.70 1006 10 16 0.00 0.00
8:51 pm 20:51 Clear 89 31.7 47 8.3 23 23 E 10 17 29.74 1007 10 16 0.00 0.00
9:51 pm 21:51 Clear 88 31.1 51 10.6 28 28 E 16 26 29.76 1008 10 16 0.00 0.00
10:51 pm 22:51 Partly Cloudy 88 31.1 50 10 27 27 E 10 17 29.76 1008 10 16 0.00 0.00
11:51 pm 23:51 Clear 86 30 50 10 29 29 E 12 19 29.75 1008 10 16 0.00 0.00

Powered by AerisWeather